Location: Canyam�s
(41.5996°N, 2.4450°E)
Time: 19:40:20
(UTC+00:00)

ATLAS CENTAUR R/B - Pass Details

Date: 07 October 2020
Orbit: 479 x 667 km, 64.7° (Epoch: 12 October)

Event Time Altitude Azimuth Distance (km) Brightness Sun altitude
Rises 18:42:30 0° 342° (NNW) 2,542 5.1 -16.0°
Reaches altitude 10° 18:45:28 10° 9° (N) 1,664 3.8 -16.5°
Enters shadow 18:46:58 14° 32° (NNE) 1,446 3.2 -16.8°
